Tracking 20942 objects as of 9-Jul-2020
HD Live streaming from Space Station
objects crossing your sky now

COSMOS 2251 DEB

Track COSMOS 2251 DEB now!
10-day predictions


NORAD ID: 35904
Int'l Code: 1993-036AUT
Perigee: 686.3 km
Apogee: 723.3 km
Inclination: 74.0 °
Period: 98.7 minutes
Semi major axis: 7075 km
RCS: 0.0063 m2 (small)
Launch date: June 16, 1993
Source: Commonwealth of Independent States (former USSR) (CIS)
Launch site: PLESETSK MISSILE AND SPACE COMPLEX (PKMTR)

Note: This is SATELLITE DEBRIS
aabbcc
Your satellite tracking list
Your tracking list is empty




NASA's NSSDC Master Catalog

Two Line Element Set (TLE):
1 35904U 93036AUT 20190.11354082 +.00000649 +00000-0 +14507-3 0  9997
2 35904 074.0256 105.6790 0026168 013.0936 347.0902 14.58619554370788
Source of the keplerian elements: AFSPC